Regional Weather Roundup
Issued by NWS

Home | Current Version | Previous Version | Graphics & Text | Print | Product List | Glossary Off
Versions: 1 2 3 4 5 6 7 8 9 10 11 12 13 14 15 16 17 18 19 20 21 22 23 24 25 26 27 28 29 30 31 32 33 34 35 36 37 38 39 40 41 42 43 44 45 46 47 48 49 50

000
ASUS43 KMKX 241100
RWRWI

WISCONSIN REGIONAL WEATHER ROUNDUP
NATIONAL WEATHER SERVICE MILWAUKEE/SULLIVAN WI
500 AM CST SAT FEB 24 2018

NOTE: "FAIR" INDICATES FEW OR NO CLOUDS BELOW 12,000 FEET WITH NO
SIGNIFICANT WEATHER AND/OR OBSTRUCTIONS TO VISIBILITY.

WIZ001-002-006>008-014>016-023>028-241200-
NORTHWEST WISCONSIN

CITY           SKY/WX    TMP DP  RH WIND       PRES   REMARKS
SUPERIOR ARPT  FAIR       3   1  91 SW3       30.22S
ASHLAND        FAIR       4   2  91 SW5       30.21F WCI  -5
HAYWARD        FOG        5   2  87 N3        30.18F VSB 1/4
SIREN          FAIR      -4  -9  80 CALM      30.20F
CUMBERLAND     HAZE      -6 -11  77 CALM      30.19S VSB<1/4
RICE LAKE      SNOW       4   1  88 CALM      30.22S VSB<1/4
CHETEK         FOG        7   4  89 CALM      30.22S VSB 1/4
LADYSMITH      SNOW       8   4  87 CALM      30.22S VSB 1/4
EAU CLAIRE     CLOUDY     9   3  78 CALM      30.22S FOG
MENOMONIE      SNOW       4   1  86 CALM      30.22F VSB<1/4
NEW RICHMOND   FOG       -1  -5  82 CALM      30.21F VSB 1/4
OSCEOLA        MOCLDY    -2  -6  82 CALM      30.24F
$$

WIZ003>005-009-010-017-018-241200-
NORTH CENTRAL WISCONSIN

CITY           SKY/WX    TMP DP  RH WIND       PRES   REMARKS
MANITOWISH WTR MOCLDY     1  -1  91 CALM      30.16S
ARBOR VITAE    MOCLDY     9   7  89 CALM      30.16S FOG
WOODRUFF       MOCLDY     9   7  89 CALM      30.16S FOG
RHINELANDER    FOG        6   5  95 CALM      30.18S VSB 1/2
EAGLE RIVER    FAIR       5   1  84 CALM      30.16S
LAND O LAKES   FAIR       6   3  87 CALM      30.18S FOG
PHILLIPS       FOG        3   1  90 CALM      30.17F VSB 1/4
TOMAHAWK       CLOUDY     1  -2  85 CALM      30.20S
MEDFORD        FOG        8   5  89 CALM      30.18F VSB 1/4
MERRILL        FOG       11   9  92 CALM      30.21F VSB 1/2
$$

WIZ029-030-035-036-043>047-241200-
CENTRAL WISCONSIN

CITY           SKY/WX    TMP DP  RH WIND       PRES   REMARKS
WAUSAU         FOG       18  16  92 NW3       30.20F VSB 1/2
MOSINEE        FOG       18  18 100 NW3       30.21F VSB 3/4
MARSHFIELD     FOG       16  13  88 CALM      30.18F VSB<1/4
STEVENS POINT  FAIR      14  14  99 CALM      30.22F FOG
WAUPACA        FAIR      24  21  88 CALM      30.23F FOG
WAUTOMA        FAIR      20  19  96 CALM        N/A  FOG
WISC RAPIDS    FAIR      17  12  80 CALM      30.22F HAZE
CAMP DOUGLAS   FAIR      15  13  93 CALM      30.21S FOG
$$

WIZ011>013-019>022-031-037>040-048>050-241200-
NORTHEAST WISCONSIN

CITY           SKY/WX    TMP DP  RH WIND       PRES   REMARKS
ANTIGO         FOG       10   8  93 CALM      30.20F VSB 1/4
SHAWANO        MOCLDY    28  23  81 CALM      30.24S
OCONTO         CLOUDY    29  26  88 CALM      30.25S
STURGEON BAY   CLOUDY    30  23  75 N3        30.25F
GREEN BAY      CLOUDY    30  23  75 CALM      30.24S
MANITOWOC      CLOUDY    30  23  75 CALM      30.26S
APPLETON       CLOUDY    27  21  80 W3        30.22S
CLINTONVILLE   FAIR      25  21  84 CALM      30.23F
OSHKOSH        FAIR      25  21  85 CALM      30.23S
$$

WIZ032>034-041-042-053>061-241200-
SOUTHWEST WISCONSIN

CITY           SKY/WX    TMP DP  RH WIND       PRES   REMARKS
LA CROSSE      FAIR      19  17  92 NW3       30.22F FOG
SPARTA         FAIR      15  14  95 CALM      30.22F FOG
VIROQUA        FAIR      21  21 100 NE6       30.17F WCI  13
BOSCOBEL       FAIR      25  21  85 E3        30.20F FOG
PRAIRIE DU CHI FAIR      22  20  91 CALM      30.19F FOG
PLATTEVILLE    MOCLDY    26  26  98 NE14      30.17F WCI  15
$$

WIZ056-057-062-063-064-067-068-241200-
SOUTH CENTRAL WISCONSIN

CITY           SKY/WX    TMP DP  RH WIND       PRES   REMARKS
REEDSBURG      FAIR      23  22  97 N3        30.21F
BARABOO/DELLS  FAIR      23  21  93 CALM      30.21F
LONE ROCK      NOT AVBL
MINERAL POINT  FAIR      28  28 100 NE13      30.16F WCI  18
MADISON        FAIR      25  21  85 E7        30.21F WCI  17
MIDDLETON      CLOUDY    28  25  86 NE6       30.21F WCI  22
WATERTOWN      CLOUDY    28  26  89 NE6       30.22S WCI  22
MONROE         MOCLDY    28  27  93 NE14      30.17F WCI  17
JANESVILLE     MOCLDY    30  30 100 NE9       30.20F WCI  22
$$

WIZ051-052-058>065-066-070>072-241200-
SOUTHEAST WISCONSIN

CITY           SKY/WX    TMP DP  RH WIND       PRES   REMARKS
MILWAUKEE      CLOUDY    32  26  78 NE9       30.23S WCI  24
WAUKESHA       CLOUDY    28  23  80 NE6       30.23F WCI  22
MILWAUKEE/TIMM CLOUDY    30  23  74 NE8       30.24F WCI  23
RACINE         CLOUDY    32  27  81 NE10      30.24F WCI  24
BURLINGTON     FAIR      28  24  86 NE5       30.22S WCI  22
KENOSHA        FAIR      30  25  81 NE10      30.21F WCI  21
FOND DU LAC    CLOUDY    29  21  72 NE5       30.23S WCI  24
SHEBOYGAN      CLOUDY    29  23  78 N3        30.25R
WEST BEND      FAIR      28  25  86 CALM      30.23S
JUNEAU         FAIR      25  22  85 CALM      30.23F
$$

LSZ147-162-241200-
LAKE SUPERIOR

STATION/POSITION TIME  TEMP    WIND        PRES    WAVE
                       AIR SEA DIR/SP/G            HT/PER
                 (UTC) (F)     (DEG/KT/KT) (MB)    (FT/S)
DEVILS ISLAND    1000   22     270/ 14/ 15 1024.3F
SAXON HARBOR     1040   14     180/  3/  4 1022.7F
$$

LMZ867-665-643>646-241200-
LAKE MICHIGAN

STATION/POSITION TIME  TEMP    WIND        PRES    WAVE
                       AIR SEA DIR/SP/G            HT/PER
                 (UTC) (F)     (DEG/KT/KT) (MB)    (FT/S)
NORTHPORT PIER   1040   31                 1024.0F
KEWAUNEE LAKESHO 1030   31     350/  3/  4 1023.5F
SHEBOYGAN LAKESH 1000   31     350/ 10/ 11 1024.5F
PORT WASHINGTON  1030   30      20/  2/  4 1025.4R
KENOSHA   LAKESH 1000   33      30/ 10/ 11 1023.7
$$

TC  - TEMPERATURE IN CELSIUS
VSB - VISIBILITY IN STATUTE MILES
WCI - WIND CHILL INDEX
HX  - HEAT INDEX





USA.gov is the U.S. government's official web portal to all federal, state and local government web resources and services.